• Em Portugal
  • Lista de países
  • Para 7 dias
  • Temperatura da água
  • Mapas de satélite
  • Mapa do tempo
  • Widgets de tempo
  • user-avatar
    Iniciar Sessão

    Previsão horária em Luanda

    Hoje, 27 Abril, Sexta-feira

    Tempo Temperatura Precipitação Vento Pressão Humidade
    00:00 +27°C° 0 mm 2 m/s 753 mmHg 91%
    01:00 +27°C° 0 mm 2 m/s 753 mmHg 92%
    02:00 +27°C° 0 mm 2 m/s 753 mmHg 93%
    03:00 +27°C° 0 mm 2 m/s 753 mmHg 94%
    04:00 +26°C° 0 mm 2 m/s 753 mmHg 96%
    05:00 +27°C° 0 mm 1 m/s 753 mmHg 95%
    06:00 +27°C° 0 mm 1 m/s 753 mmHg 94%
    07:00 +27°C° 0 mm 1 m/s 753 mmHg 93%
    08:00 +29°C° 0 mm 1 m/s 754 mmHg 85%
    09:00 +31°C° 0 mm 1 m/s 754 mmHg 76%
    10:00 +31°C° 0 mm 0 m/s 754 mmHg 68%
    11:00 +33°C° 0 mm 1 m/s 753 mmHg 67%
    12:00 +33°C° 0 mm 1 m/s 753 mmHg 65%
    13:00 +34°C° 0 mm 2 m/s 752 mmHg 63%
    14:00 +34°C° 0 mm 2 m/s 752 mmHg 64%
    15:00 +34°C° 0 mm 3 m/s 751 mmHg 64%
    16:00 +34°C° 0 mm 4 m/s 751 mmHg 64%
    17:00 +33°C° 0 mm 4 m/s 751 mmHg 71%
    18:00 +30°C° 0 mm 4 m/s 752 mmHg 79%
    19:00 +29°C° 0 mm 4 m/s 752 mmHg 86%
    20:00 +28°C° 0,2 mm 3 m/s 753 mmHg 88%
    21:00 +28°C° 0,2 mm 3 m/s 753 mmHg 91%
    22:00 +27°C° 0,2 mm 3 m/s 754 mmHg 93%
    23:00 +27°C° 0,5 mm 2 m/s 754 mmHg 94%

    Amanhã, 28 Abril, Sábado

    Tempo Temperatura Precipitação Vento Pressão Humidade
    00:00 +27°C° 0,5 mm 2 m/s 754 mmHg 95%
    01:00 +27°C° 0,5 mm 2 m/s 754 mmHg 95%
    02:00 +27°C° 0,2 mm 2 m/s 754 mmHg 95%
    03:00 +27°C° 0,2 mm 2 m/s 753 mmHg 95%
    04:00 +27°C° 0,2 mm 2 m/s 753 mmHg 94%
    05:00 +27°C° 0,4 mm 1 m/s 753 mmHg 93%
    06:00 +27°C° 0,4 mm 1 m/s 754 mmHg 91%
    07:00 +28°C° 0,4 mm 1 m/s 754 mmHg 89%
    08:00 +29°C° 0 mm 1 m/s 754 mmHg 81%
    09:00 +31°C° 0 mm 1 m/s 755 mmHg 72%
    10:00 +33°C° 0 mm 1 m/s 755 mmHg 64%
    11:00 +35°C° 0,1 mm 2 m/s 754 mmHg 61%
    12:00 +35°C° 0,1 mm 2 m/s 754 mmHg 58%
    13:00 +36°C° 0,1 mm 3 m/s 753 mmHg 55%
    14:00 +35°C° 0,5 mm 4 m/s 753 mmHg 61%
    15:00 +34°C° 0,5 mm 4 m/s 752 mmHg 68%
    16:00 +33°C° 0,5 mm 4 m/s 752 mmHg 75%
    17:00 +30°C° 0 mm 4 m/s 752 mmHg 79%
    18:00 +29°C° 0 mm 4 m/s 753 mmHg 83%
    19:00 +28°C° 0 mm 3 m/s 753 mmHg 87%
    20:00 +28°C° 0 mm 3 m/s 754 mmHg 88%
    21:00 +28°C° 0 mm 3 m/s 755 mmHg 89%
    22:00 +27°C° 0 mm 3 m/s 755 mmHg 90%
    23:00 +27°C° 0,6 mm 3 m/s 755 mmHg 92%

    Depois de amanhã, 29 Abril, Domingo

    Tempo Temperatura Precipitação Vento Pressão Humidade
    00:00 +27°C° 0,6 mm 3 m/s 755 mmHg 93%
    01:00 +26°C° 0,6 mm 3 m/s 754 mmHg 95%
    02:00 +26°C° 0,1 mm 3 m/s 754 mmHg 96%
    03:00 +26°C° 0,1 mm 3 m/s 754 mmHg 96%
    04:00 +26°C° 0,1 mm 3 m/s 753 mmHg 97%
    05:00 +26°C° 0,1 mm 3 m/s 754 mmHg 96%
    06:00 +26°C° 0,1 mm 3 m/s 754 mmHg 95%
    07:00 +26°C° 0,1 mm 3 m/s 754 mmHg 94%
    08:00 +28°C° 0 mm 3 m/s 754 mmHg 85%
    09:00 +30°C° 0 mm 3 m/s 755 mmHg 75%
    10:00 +33°C° 0 mm 3 m/s 755 mmHg 66%
    11:00 +35°C° 0 mm 3 m/s 754 mmHg 60%
    12:00 +36°C° 0 mm 3 m/s 753 mmHg 54%
    13:00 +37°C° 0 mm 3 m/s 752 mmHg 48%
    14:00 +37°C° 0 mm 3 m/s 752 mmHg 51%
    15:00 +36°C° 0 mm 4 m/s 751 mmHg 54%
    16:00 +35°C° 0 mm 5 m/s 751 mmHg 57%
    17:00 +33°C° 0,2 mm 5 m/s 751 mmHg 67%
    18:00 +32°C° 0,2 mm 5 m/s 752 mmHg 77%
    19:00 +29°C° 0,2 mm 5 m/s 752 mmHg 87%
    20:00 +28°C° 0,2 mm 4 m/s 753 mmHg 88%
    21:00 +28°C° 0,2 mm 3 m/s 753 mmHg 90%
    22:00 +28°C° 0,2 mm 3 m/s 754 mmHg 92%
    23:00 +27°C° 0,4 mm 3 m/s 753 mmHg 93%

    30 Abril, Segunda-feira

    Tempo Temperatura Precipitação Vento Pressão Humidade
    00:00 +27°C° 0,4 mm 3 m/s 753 mmHg 93%
    01:00 +27°C° 0,4 mm 3 m/s 753 mmHg 94%
    02:00 +26°C° 0 mm 3 m/s 753 mmHg 94%
    03:00 +26°C° 0 mm 3 m/s 752 mmHg 95%
    04:00 +26°C° 0 mm 2 m/s 752 mmHg 95%
    05:00 +26°C° 0 mm 2 m/s 752 mmHg 94%
    06:00 +26°C° 0 mm 2 m/s 753 mmHg 93%
    07:00 +26°C° 0 mm 2 m/s 753 mmHg 93%
    08:00 +28°C° 0 mm 3 m/s 753 mmHg 83%
    09:00 +30°C° 0 mm 3 m/s 754 mmHg 74%
    10:00 +33°C° 0 mm 3 m/s 754 mmHg 65%
    11:00 +35°C° 0 mm 2 m/s 753 mmHg 58%
    12:00 +37°C° 0 mm 2 m/s 752 mmHg 52%
    13:00 +38°C° 0 mm 2 m/s 751 mmHg 45%
    14:00 +37°C° 0 mm 3 m/s 751 mmHg 49%
    15:00 +37°C° 0 mm 4 m/s 750 mmHg 53%
    16:00 +36°C° 0 mm 5 m/s 750 mmHg 57%
    17:00 +34°C° 0 mm 5 m/s 751 mmHg 67%
    18:00 +32°C° 0 mm 4 m/s 751 mmHg 77%
    19:00 +29°C° 0 mm 4 m/s 752 mmHg 86%
    20:00 +29°C° 0,2 mm 4 m/s 752 mmHg 89%
    21:00 +28°C° 0,2 mm 3 m/s 753 mmHg 91%
    22:00 +28°C° 0,2 mm 2 m/s 753 mmHg 93%
    23:00 +28°C° 0,6 mm 2 m/s 753 mmHg 93%

    1 Maio, Terça-feira

    Tempo Temperatura Precipitação Vento Pressão Humidade
    00:00 +27°C° 0,6 mm 2 m/s 753 mmHg 94%
    01:00 +27°C° 0,6 mm 2 m/s 753 mmHg 95%
    02:00 +27°C° 0,1 mm 2 m/s 752 mmHg 95%
    03:00 +27°C° 0,1 mm 2 m/s 752 mmHg 95%
    04:00 +27°C° 0,1 mm 2 m/s 752 mmHg 96%
    05:00 +27°C° 0 mm 2 m/s 753 mmHg 95%
    06:00 +27°C° 0 mm 2 m/s 753 mmHg 95%
    07:00 +27°C° 0 mm 2 m/s 753 mmHg 94%
    08:00 +29°C° 0 mm 2 m/s 754 mmHg 85%
    09:00 +31°C° 0 mm 2 m/s 754 mmHg 75%
    10:00 +34°C° 0 mm 3 m/s 754 mmHg 65%
    11:00 +35°C° 0 mm 3 m/s 753 mmHg 58%
    12:00 +37°C° 0 mm 3 m/s 752 mmHg 52%
    13:00 +38°C° 0 mm 3 m/s 751 mmHg 46%
    14:00 +38°C° 0 mm 3 m/s 751 mmHg 49%
    15:00 +37°C° 0 mm 4 m/s 750 mmHg 52%
    16:00 +36°C° 0 mm 5 m/s 750 mmHg 56%
    17:00 +34°C° 0 mm 4 m/s 750 mmHg 66%
    18:00 +32°C° 0 mm 4 m/s 751 mmHg 76%
    19:00 +29°C° 0 mm 4 m/s 752 mmHg 87%
    20:00 +29°C° 0,3 mm 4 m/s 752 mmHg 89%
    21:00 +28°C° 0,3 mm 3 m/s 753 mmHg 91%
    22:00 +28°C° 0,3 mm 3 m/s 753 mmHg 93%
    23:00 +27°C° 0,6 mm 3 m/s 753 mmHg 94%

    2 Maio, Quarta-feira

    Tempo Temperatura Precipitação Vento Pressão Humidade
    00:00 +27°C° 0,6 mm 2 m/s 753 mmHg 94%
    01:00 +27°C° 0,6 mm 2 m/s 753 mmHg 94%
    02:00 +27°C° 0 mm 2 m/s 752 mmHg 95%
    03:00 +27°C° 0 mm 2 m/s 752 mmHg 95%
    04:00 +27°C° 0 mm 2 m/s 752 mmHg 96%
    05:00 +27°C° 0 mm 2 m/s 752 mmHg 95%
    06:00 +27°C° 0 mm 2 m/s 753 mmHg 95%
    07:00 +27°C° 0 mm 2 m/s 753 mmHg 95%
    08:00 +29°C° 0 mm 2 m/s 753 mmHg 85%
    09:00 +31°C° 0 mm 2 m/s 753 mmHg 75%
    10:00 +34°C° 0 mm 2 m/s 753 mmHg 65%
    11:00 +35°C° 0 mm 2 m/s 753 mmHg 59%
    12:00 +36°C° 0 mm 3 m/s 752 mmHg 53%
    13:00 +38°C° 0 mm 3 m/s 751 mmHg 47%
    14:00 +37°C° 0 mm 3 m/s 751 mmHg 51%
    15:00 +36°C° 0 mm 4 m/s 750 mmHg 55%
    16:00 +36°C° 0 mm 5 m/s 750 mmHg 60%
    17:00 +34°C° 0 mm 4 m/s 750 mmHg 68%
    18:00 +32°C° 0 mm 4 m/s 751 mmHg 76%
    19:00 +29°C° 0 mm 4 m/s 751 mmHg 84%
    20:00 +29°C° 0 mm 4 m/s 752 mmHg 87%
    21:00 +28°C° 0 mm 3 m/s 752 mmHg 90%
    22:00 +28°C° 0 mm 3 m/s 752 mmHg 93%
    23:00 +27°C° 0,7 mm 3 m/s 752 mmHg 93%
    Mostrar mais